Current Version              Previous Version:    01  02  03  04  05  06  07  08  09  10  11  12  13  14  15  16  17  18  19  20  21  22  23  24  25  26  27  28  29  30  
   31  32  33  34  35  36  37  38  39  40  41  42  43  44  45  46  47  48  49  50  51  52  53  54  55  56  57  58  59  60  

[Printable]
742
ASUS44 KFWD 260915
RWRTX
NORTH TEXAS HOURLY WEATHER ROUNDUP
NATIONAL WEATHER SERVICE FORT WORTH TX
300 AM CST MON JAN 26 2015

NOTE: "FAIR" INDICATES FEW OR NO CLOUDS BELOW 12,000 FEET WITH NO
SIGNIFICANT WEATHER AND/OR OBSTRUCTIONS TO VISIBILITY.

TXZ118-119-261000-
DALLAS/FORT WORTH METROPLEX

CITY           SKY/WX    TMP DP  RH WIND       PRES   REMARKS
DFW AIRPORT    CLEAR     40  26  57 NW8       30.20R WCI  34
DALLAS LOVE    CLEAR     39  29  67 CALM      30.22R
FTW MEACHAM    CLEAR     44  27  51 NW3       30.22R
DAL-EXECUTIVE  CLEAR     41  26  55 NW7       30.20R WCI  36
FTW-ALLIANCE   CLEAR     33  26  75 CALM      30.21R
FTW-SPINKS     CLEAR     35  28  76 CALM      30.23S
ARLINGTON      CLEAR     42  26  53 CALM      30.22R
GRAND PRAIRIE  CLEAR     47  28  48 NW5       30.23R
ADDISON        CLEAR     42  30  62 N3        30.22S
MESQUITE       CLEAR     40  29  64 CALM      30.21S
LANCASTER      CLEAR     37  27  66 CALM      30.23R
$$

TXZ091>094-102>105-117-120-121-131>134-261000-
NORTH CENTRAL TEXAS

CITY           SKY/WX    TMP DP  RH WIND       PRES   REMARKS
SHRMAN/DENISON FAIR      36  31  82 CALM      30.22S
GAINESVILLE    CLEAR     34  28  79 CALM      30.22F
BOWIE          CLEAR     39  27  60 W5        30.22R WCI  36
BRIDGEPORT     CLEAR     34  27  75 CALM      30.25R
DECATUR        CLEAR     42  25  50 W3        30.22R
DENTON         CLEAR     36  27  69 W5        30.21S WCI  32
MCKINNEY       CLEAR     37  28  70 N7        30.21R WCI  32
GREENVILLE     CLEAR     37  30  75 CALM      30.21S
ROCKWALL       CLEAR     39  30  70 CALM      30.20S
TERRELL        CLEAR     46  30  53 NW8       30.21R
WAXAHACHIE     CLEAR     40  29  65 NW6       30.23R WCI  35
CLEBURNE       CLEAR     41  27  56 NW5       30.23S WCI  38
GRANBURY       CLEAR     34  30  86 CALM      30.24S
$$

TXZ083>090-098>101-113>116-127>130-139>142-154-155-261000-
WESTERN NORTH TEXAS

CITY           SKY/WX    TMP DP  RH WIND       PRES   REMARKS
WICHITA FALLS  CLEAR     38  27  64 W5        30.21S WCI  34
WF-KICKAPOO    CLEAR    N/A N/A N/A W6        30.23S
VERNON         CLEAR     37  28  69 SW3       30.22F
ABILENE        CLEAR     45  29  53 CALM      30.23F
ABILENE-DYESS  CLEAR     45  31  59 S1        30.22F
BRECKENRIDGE   CLEAR     40  31  69 CALM      30.23S
GRAHAM         CLEAR     32  29  88 CALM      30.22S
MINERAL WELLS  CLEAR     36  29  75 W3        30.22R
STEPHENVILLE   CLEAR     43  30  61 NW6       30.25R WCI  39
COMANCHE       PTCLDY    49  31  51 CALM      30.22S
BROWNWOOD      PTCLDY    36  32  87 CALM      30.23F
COLEMAN        CLEAR     44  32  64 W5        30.22F
BRADY          CLEAR     37  32  81 SW7       30.22S WCI  32
$$

TXZ143>147-156>162-174-175-261000-
CENTRAL TEXAS

CITY           SKY/WX    TMP DP  RH WIND       PRES   REMARKS
WACO           CLEAR     38  31  76 N6        30.22R WCI  33
WACO-MCGREGOR  CLEAR     45  28  53 NW6       30.22S
HILLSBORO      CLEAR     37  28  70 N3        30.22R
CORSICANA      CLEAR     42  28  57 N7        30.21S WCI  38
MEXIA          CLEAR     40  28  63 NW5       30.20S WCI  37
HEARNE         CLEAR     38  32  79 CALM      30.21S
CAMERON        CLEAR     45  33  64 W6        30.21S
TEMPLE         PTCLDY    37  28  70 NW7       30.20S WCI  32
KILLEEN        PTCLDY    46  31  55 N6        30.20F
KILLEEN-SKYLRK PTCLDY    45  28  53 NW5       30.18F
FORT HOOD      PTCLDY    44  31  60 MISG      30.20F
GATESVILLE     PTCLDY    37  32  81 CALM      30.24S
HAMILTON       PTCLDY    42  31  65 NW8       30.22S WCI  37
LAMPASAS       PTCLDY    45  31  58 N7        30.20S
$$

TXZ095>097-106>112-122>126-135>138-148>153-164>167-261000-
EAST TEXAS

CITY           SKY/WX    TMP DP  RH WIND       PRES   REMARKS
PARIS          CLEAR     37  28  70 NW6       30.18S WCI  33
SULPHUR SPRNGS CLEAR     42  32  68 W12       30.22R WCI  35
MOUNT PLEASANT CLEAR     42  32  67 NW6       30.18F WCI  38
GILMER         CLEAR     42  31  62 W3        30.16F
MINEOLA        CLEAR     43  32  65 W3        30.20R
TYLER          CLEAR     43  29  57 W7        30.18R WCI  39
LONGVIEW       CLEAR     42  29  59 NW5       30.16R WCI  39
MARSHALL       CLEAR     47  34  60 NW8       30.17S
ATHENS         CLEAR     43  28  56 N3        30.19S
PALESTINE      CLEAR     42  30  62 NW3       30.21R
HENDERSON      CLEAR     43  30  62 CALM      30.18S
NACOGDOCHES    CLEAR     43  27  52 N6        30.18S WCI  39
LUFKIN         CLEAR     47  28  47 NW3       30.17R
$$

SUPPLEMENTAL OBSERVATIONS (CENTRAL)

CITY           SKY/WX    TMP DP  RH WIND       PRES   REMARKS
LAKE TEXOMA      N/A     43  32  65 W5          N/A
CADDO GRASSLND   N/A     37  32  81 W3          N/A
PAT MAYSE LAKE   N/A     39  32  75 NW2         N/A
GREENVILLE       N/A     37  28  70 NW6         N/A  WCI  33
CEDAR HILL       N/A     37  27  65 CALM        N/A
ATHENS           N/A     41  28  60 NW2         N/A
PALESTINE        N/A     45  28  53 NW3         N/A
LAKE LIMESTONE   N/A     45  27  49 NW5         N/A
MCGREGOR         N/A     43  32  65 W2          N/A
TEMPLE           N/A     46  32  57 NW5         N/A
$$

SUPPLEMENTAL OBSERVATIONS (WEST)

CITY           SKY/WX    TMP DP  RH WIND       PRES   REMARKS
MILLERS CREEK    N/A     37  32  81 S5          N/A  WCI  34
POSSUM KINGDOM   N/A     43  30  61 SW5         N/A
GRANBURY         N/A     34  30  86 S1          N/A
COMANCHE         N/A     46  27  46 NW5         N/A
HAMBY            N/A     34  28  80 E1          N/A
IVIE RESERVOIR   N/A     39  32  75 W6          N/A  WCI  35
COLORADO BEND    N/A     43  30  61 W3          N/A
$$

SUPPLEMENTAL OBSERVATIONS (EAST)

CITY           SKY/WX    TMP DP  RH WIND       PRES   REMARKS
CLARKSVILLE      N/A     37  32  81 W5          N/A  WCI  34
TEXARKANA        N/A     43  32  65 NW6         N/A  WCI  39
LINDEN           N/A     43  32  65 NW5         N/A
CADDO LAKE       N/A     41  32  70 SW1         N/A
GILMER           N/A     43  30  61 NW5         N/A
HENDERSON        N/A     37  28  70 W3          N/A
LUFKIN           N/A     41  30  65 MISG        N/A
S SABINE NF      N/A     46  32  57 W5          N/A
$$

SUPPLEMENTAL OBSERVATIONS ARE A COLLECTION OF AUTOMATED INSTRUMENTS
THAT ARE MAINTAINED BY A VARIETY OF FEDERAL AND STATE AGENCIES.
CERTAIN ELEMENTS...SUCH AS HUMIDITY VALUES AND SUSTAINED WIND
SPEEDS...MAY BE APPROXIMATED.